Columbia Airport, CA

9:19 PM PST on December 13, 2019 (GMT -0800)
Columbia Airport

Weather History for KO22 - October, 2019

Change the Weather History Date:

Monday, October 28, 2019

  Actual Average (WUND) Record (WUND)
Temperature  
Mean Temperature 54 °F -  
Max Temperature 66 °F - - (-1)
Min Temperature 41 °F - - (-1)
Degree Days  
Heating Degree Days 12    
Growing Degree Days 4 (Base 50)    
Moisture  
Dew Point 23 °F    
Average Humidity 32    
Maximum Humidity 57    
Minimum Humidity 13    
Precipitation  
Precipitation 0.00 in - - ()
Sea Level Pressure  
Sea Level Pressure 30.03 in    
Wind  
Wind Speed 3 mph (SSW)    
Max Wind Speed 8 mph    
Max Gust Speed 12 mph    
Visibility 10 miles    
Events      
Averages and records for this station are not official NWS values.
T = Trace of Precipitation, MM = Missing Value Source: NWS Daily Summary

Daily Weather History Graph

Daily Weather History Graph

Search for Another Location

Airport or City:

Astronomy

Oct. 28, 2019 Rise Set
Actual Time 7:23 AM PDT 6:07 PM PDT
Civil Twilight 6:56 AM PDT 6:34 PM PDT
Nautical Twilight 6:25 AM PDT 7:05 PM PDT
Astronomical Twilight 5:54 AM PDT 7:35 PM PDT
Moon 7:51 AM PDT (10/28) 6:55 PM PDT (10/28)
Length of Visible Light 11h 38m
Length of Day
10h 44m
New Moon, 1% of the Moon is Illuminated
Oct 28
New Moon
Nov 4
First Quarter
Nov 12
Full
Nov 19
Last Quarter
Nov 26
New

Hourly Weather History & Observations

Time (PDT) Temp. Dew Point Humidity Pressure Visibility Wind Dir Wind Speed Gust Speed Precip Events Conditions
11:35 AM 64.4 °F 12.2 °F 13% 30.08 in 10.0 mi Variable 4.6 mph - N/A   Unknown
11:55 AM 64.4 °F 15.8 °F 15% 30.08 in 10.0 mi Variable 4.6 mph - N/A   Clear
12:15 PM 64.4 °F 15.8 °F 15% 30.08 in 10.0 mi SSW 8.1 mph - N/A   Clear
12:35 PM 64.4 °F 17.6 °F 16% 30.08 in 10.0 mi Variable 5.8 mph - N/A   Clear
12:55 PM 66.2 °F 15.8 °F 14% 30.07 in 10.0 mi SSW 6.9 mph - N/A   Clear
1:15 PM 66.2 °F 19.4 °F 17% 30.06 in 10.0 mi Variable 4.6 mph 11.5 mph N/A   Clear
1:35 PM 66.2 °F 21.2 °F 18% 30.05 in 10.0 mi WSW 5.8 mph - N/A   Clear
1:55 PM 64.4 °F 21.2 °F 19% 30.05 in 10.0 mi Variable 4.6 mph - N/A   Clear
2:55 PM 66.2 °F 21.2 °F 18% 30.03 in 10.0 mi South 4.6 mph - N/A   Clear
3:15 PM 64.4 °F 19.4 °F 18% 30.03 in 10.0 mi Calm Calm - N/A   Clear
3:35 PM 66.2 °F 19.4 °F 17% 30.02 in 10.0 mi SSW 4.6 mph - N/A   Clear
3:55 PM 66.2 °F 19.4 °F 17% 30.02 in 10.0 mi Calm Calm 11.5 mph N/A   Clear
4:15 PM 66.2 °F 21.2 °F 18% 30.02 in 10.0 mi Calm Calm - N/A   Clear
4:35 PM 64.4 °F 21.2 °F 19% 30.02 in 10.0 mi Calm Calm - N/A   Clear
4:55 PM 64.4 °F 21.2 °F 19% 30.01 in 10.0 mi SSW 3.5 mph - N/A   Clear
5:15 PM 62.6 °F 21.2 °F 20% 30.02 in 9.0 mi Calm Calm - N/A   Clear
5:35 PM 62.6 °F 23.0 °F 22% 30.02 in 10.0 mi SW 3.5 mph - N/A   Clear
5:55 PM 59.0 °F 24.8 °F 27% 30.01 in 10.0 mi Calm Calm - N/A   Clear
6:15 PM 55.4 °F 24.8 °F 31% 30.02 in 10.0 mi Calm Calm - N/A   Clear
6:35 PM 53.6 °F 26.6 °F 35% 30.01 in 10.0 mi Calm Calm - N/A   Clear
6:55 PM 50.0 °F 26.6 °F 40% 30.01 in 10.0 mi Calm Calm - N/A   Clear
7:15 PM 50.0 °F 26.6 °F 40% 30.02 in 10.0 mi Calm Calm - N/A   Clear
7:35 PM 48.2 °F 26.6 °F 43% 30.02 in 10.0 mi Calm Calm - N/A   Clear
7:55 PM 46.4 °F 26.6 °F 46% 30.02 in 10.0 mi Calm Calm - N/A   Scattered Clouds
8:15 PM 44.6 °F 26.6 °F 49% 30.01 in 10.0 mi Calm Calm - N/A   Mostly Cloudy
8:35 PM 46.4 °F 26.6 °F 46% 30.01 in 10.0 mi Calm Calm - N/A   Scattered Clouds
8:55 PM 44.6 °F 24.8 °F 46% 30.01 in 10.0 mi Calm Calm - N/A   Partly Cloudy
9:15 PM 44.6 °F 26.6 °F 49% 30.01 in 10.0 mi Calm Calm - N/A   Clear
9:35 PM 42.8 °F 24.8 °F 49% 30.02 in 10.0 mi Calm Calm - N/A   Mostly Cloudy
9:55 PM 42.8 °F 24.8 °F 49% 30.03 in 10.0 mi Calm Calm - N/A   Overcast
10:15 PM 42.8 °F 24.8 °F 49% 30.03 in 10.0 mi Calm Calm - N/A   Mostly Cloudy
10:35 PM 41.0 °F 26.6 °F 57% 30.03 in 10.0 mi Calm Calm - N/A   Partly Cloudy
10:55 PM 41.0 °F 24.8 °F 53% 30.03 in 10.0 mi Calm Calm - N/A   Clear
11:15 PM 41.0 °F 24.8 °F 53% 30.02 in 10.0 mi Calm Calm - N/A   Clear
11:35 PM 41.0 °F 24.8 °F 53% 30.02 in 10.0 mi Calm Calm - N/A   Clear
11:55 PM 41.0 °F 24.8 °F 53% 30.01 in 10.0 mi Calm Calm - N/A   Clear